AUI1752 UGTB-UKBB

Flight info

Callsign AUI1752
Flight time N/A
Altitude 38000
Route LAGAS DCT ROLIN/K0857F380 DCT NEROB DCT MIMKO T219 TEPLO/K0874F390 T219 KONIP
Aircraft B738/M-SDE2E3FGHIRWXY/LB1

Departure

Time 2026-04-30 17:59
Airport Tbilisi International Airport (UGTB)

Arrival

Time N/A
Airport Boryspil International Airport (UKBB)
Time Latitude Longitude Altitude Speed Heading
2026-04-30 17:39 41.66896 44.96344 1526 ft 0 kts 43°
2026-04-30 17:50 41.66854 44.96291 1520 ft 2 kts 38°
2026-04-30 17:51 41.66821 44.96291 1524 ft 0 kts 314°
2026-04-30 17:53 41.66886 44.96198 1519 ft 10 kts 312°
2026-04-30 17:54 41.67116 44.95831 1525 ft 17 kts 313°
2026-04-30 17:55 41.67443 44.95367 1524 ft 19 kts 310°
2026-04-30 17:56 41.67638 44.94880 1522 ft 14 kts 254°
2026-04-30 17:57 41.67548 44.94505 1523 ft 6 kts 252°
2026-04-30 17:58 41.67461 44.94427 1522 ft 12 kts 137°
2026-04-30 17:59 41.65235 44.97177 2408 ft 165 kts 136°
2026-04-30 18:00 41.61302 45.02098 4085 ft 235 kts 136°
2026-04-30 18:00 41.56699 45.01562 5515 ft 272 kts 232°
2026-04-30 18:01 41.55875 44.96712 7154 ft 276 kts 274°
2026-04-30 18:02 41.56458 44.89086 9643 ft 278 kts 276°
2026-04-30 18:02 41.57103 44.80928 10782 ft 326 kts 275°
2026-04-30 18:03 41.57835 44.71109 11508 ft 374 kts 275°
2026-04-30 18:04 41.58588 44.60707 13640 ft 377 kts 274°
2026-04-30 18:05 41.59586 44.46602 16191 ft 387 kts 274°
2026-04-30 18:06 41.60597 44.32067 18517 ft 398 kts 274°
2026-04-30 18:07 41.61606 44.17223 20508 ft 408 kts 274°
2026-04-30 18:08 41.62370 44.05790 21868 ft 416 kts 274°
2026-04-30 18:09 41.63394 43.90224 23507 ft 426 kts 274°
2026-04-30 18:10 41.64418 43.74324 24912 ft 433 kts 274°
2026-04-30 18:11 41.65427 43.58295 26246 ft 437 kts 274°
2026-04-30 18:11 41.66179 43.46127 27476 ft 433 kts 274°
2026-04-30 18:12 41.66897 43.34301 28910 ft 426 kts 274°
2026-04-30 18:13 41.67371 43.26384 29853 ft 421 kts 274°
2026-04-30 18:13 41.67976 43.16117 30909 ft 417 kts 274°
2026-04-30 18:14 41.68491 43.07268 31678 ft 415 kts 273°
2026-04-30 18:15 41.69150 42.95763 32740 ft 411 kts 273°
2026-04-30 18:15 41.69791 42.84369 33765 ft 408 kts 273°
2026-04-30 18:16 41.70210 42.76804 34267 ft 408 kts 273°
2026-04-30 18:16 41.70620 42.69318 34745 ft 408 kts 273°
2026-04-30 18:17 41.70825 42.65535 34977 ft 408 kts 273°
2026-04-30 18:17 41.71029 42.61752 35267 ft 407 kts 273°
2026-04-30 18:17 41.71431 42.54230 35786 ft 405 kts 272°
2026-04-30 18:18 41.71631 42.50460 35868 ft 408 kts 272°
2026-04-30 18:18 41.71831 42.46663 35995 ft 410 kts 272°
2026-04-30 18:18 41.72028 42.42896 36247 ft 408 kts 272°
2026-04-30 18:18 41.72225 42.39108 36534 ft 407 kts 272°
2026-04-30 18:19 41.72419 42.35340 36726 ft 408 kts 272°
2026-04-30 18:19 41.72613 42.31562 36874 ft 409 kts 272°
2026-04-30 18:19 41.72807 42.27760 37018 ft 410 kts 272°
2026-04-30 18:19 41.73000 42.23959 37286 ft 409 kts 272°
2026-04-30 18:20 41.73190 42.20179 37498 ft 408 kts 272°
2026-04-30 18:20 41.73381 42.16385 37697 ft 408 kts 272°
2026-04-30 18:20 41.73565 42.12668 37871 ft 408 kts 272°
2026-04-30 18:20 41.73752 42.08884 38099 ft 408 kts 272°
2026-04-30 18:21 41.73938 42.05077 38094 ft 411 kts 272°
2026-04-30 18:21 41.74308 41.97441 38111 ft 410 kts 272°
2026-04-30 18:22 41.74671 41.89848 38116 ft 407 kts 272°
2026-04-30 18:22 41.75201 41.78583 38145 ft 404 kts 272°
2026-04-30 18:23 41.75547 41.71092 38135 ft 402 kts 272°
2026-04-30 18:23 41.75887 41.63624 38126 ft 402 kts 272°
2026-04-30 18:24 41.76375 41.52709 38129 ft 402 kts 272°
2026-04-30 18:25 41.76702 41.45256 38129 ft 403 kts 271°
2026-04-30 18:25 41.77187 41.34003 38133 ft 405 kts 271°
2026-04-30 18:26 41.77663 41.22714 38110 ft 407 kts 271°
2026-04-30 18:27 41.78129 41.11376 38104 ft 408 kts 271°
2026-04-30 18:28 41.78585 41.00030 38107 ft 408 kts 271°
2026-04-30 18:28 41.79030 40.88685 38110 ft 408 kts 271°
2026-04-30 18:29 41.79606 40.73555 38103 ft 407 kts 271°
2026-04-30 18:30 41.80417 40.67361 38118 ft 411 kts 287°
2026-04-30 18:30 41.83759 40.59625 38104 ft 423 kts 306°
2026-04-30 18:31 41.89696 40.50868 38107 ft 424 kts 307°
2026-04-30 18:32 41.95644 40.42084 38105 ft 423 kts 307°
2026-04-30 18:33 42.00867 40.34265 38108 ft 423 kts 306°
2026-04-30 18:33 42.06749 40.25415 38105 ft 422 kts 306°
2026-04-30 18:34 42.12607 40.16573 38121 ft 421 kts 306°
2026-04-30 18:35 42.16505 40.10676 38110 ft 421 kts 306°
2026-04-30 18:35 42.20400 40.04771 38105 ft 421 kts 306°
2026-04-30 18:36 42.26224 39.95920 38105 ft 420 kts 306°
2026-04-30 18:37 42.32027 39.87073 38111 ft 420 kts 306°
2026-04-30 18:37 42.35899 39.81157 38108 ft 420 kts 306°
2026-04-30 18:38 42.39767 39.75233 38110 ft 420 kts 306°
2026-04-30 18:38 42.43629 39.69307 38116 ft 420 kts 306°
2026-04-30 18:39 42.47488 39.63375 38107 ft 420 kts 306°
2026-04-30 18:39 42.51318 39.57473 38109 ft 420 kts 306°
2026-04-30 18:40 42.55172 39.51525 38129 ft 420 kts 306°
2026-04-30 18:40 42.59022 39.45569 38138 ft 420 kts 306°
2026-04-30 18:41 42.62871 39.39604 38130 ft 420 kts 305°
2026-04-30 18:41 42.66714 39.33634 38111 ft 420 kts 305°
2026-04-30 18:42 42.70552 39.27662 38127 ft 419 kts 305°
2026-04-30 18:42 42.76295 39.18700 38110 ft 419 kts 305°
2026-04-30 18:45 42.97239 38.85786 38114 ft 417 kts 305°
2026-04-30 18:46 43.01030 38.79787 38119 ft 417 kts 305°
2026-04-30 18:46 43.04818 38.73781 38113 ft 417 kts 305°
2026-04-30 18:47 43.08603 38.67769 38115 ft 417 kts 305°
2026-04-30 18:47 43.12385 38.61749 38135 ft 417 kts 305°
2026-04-30 18:48 43.16161 38.55724 38119 ft 417 kts 304°
2026-04-30 18:48 43.19935 38.49691 38116 ft 417 kts 304°
2026-04-30 18:49 43.23703 38.43656 38124 ft 417 kts 304°
2026-04-30 18:49 43.27468 38.37613 38115 ft 416 kts 304°
2026-04-30 18:50 43.31219 38.31580 38115 ft 416 kts 304°
2026-04-30 18:50 43.34958 38.25553 38115 ft 415 kts 304°
2026-04-30 18:51 43.38679 38.19543 38117 ft 415 kts 304°
2026-04-30 18:51 43.42443 38.13449 38123 ft 416 kts 304°
2026-04-30 18:52 43.46156 38.07426 38120 ft 415 kts 304°
2026-04-30 18:52 43.49915 38.01317 38119 ft 415 kts 304°
2026-04-30 18:53 43.53622 37.95279 38115 ft 415 kts 304°
2026-04-30 18:53 43.57350 37.89193 38123 ft 416 kts 304°
2026-04-30 18:54 43.61068 37.83113 38117 ft 416 kts 304°
2026-04-30 18:54 43.64784 37.77021 38119 ft 416 kts 304°
2026-04-30 18:55 43.68472 37.70963 38123 ft 416 kts 303°
2026-04-30 18:55 43.74054 37.61771 38127 ft 416 kts 303°
2026-04-30 18:56 43.79632 37.52555 38125 ft 416 kts 303°
2026-04-30 18:57 43.85194 37.43335 38157 ft 417 kts 303°
2026-04-30 18:57 43.88882 37.37206 38137 ft 417 kts 303°
2026-04-30 18:58 43.94455 37.27921 38134 ft 417 kts 303°
2026-04-30 18:59 44.00018 37.18622 38144 ft 418 kts 303°
2026-04-30 19:00 44.07420 37.06200 38144 ft 418 kts 303°
2026-04-30 19:01 44.14832 36.93708 38149 ft 420 kts 303°
2026-04-30 19:02 44.20410 36.84271 38148 ft 421 kts 303°
2026-04-30 19:03 44.27826 36.71677 38169 ft 422 kts 303°
2026-04-30 19:04 44.35295 36.58936 38160 ft 425 kts 303°
2026-04-30 19:05 44.42759 36.46148 38171 ft 427 kts 303°
2026-04-30 19:06 44.50272 36.33218 38154 ft 429 kts 303°
2026-04-30 19:06 44.55911 36.23476 38158 ft 429 kts 303°
2026-04-30 19:07 44.61546 36.13705 38173 ft 430 kts 303°
2026-04-30 19:08 44.69024 36.00690 38171 ft 429 kts 303°
2026-04-30 19:09 44.74638 35.90879 38169 ft 429 kts 303°
2026-04-30 19:09 44.78372 35.84333 38172 ft 429 kts 303°
2026-04-30 19:10 44.85790 35.71286 38202 ft 428 kts 303°
2026-04-30 19:11 44.91370 35.61433 38175 ft 428 kts 303°
2026-04-30 19:12 44.95082 35.54860 38180 ft 428 kts 303°
2026-04-30 19:12 44.98787 35.48283 38179 ft 428 kts 303°
2026-04-30 19:13 45.06176 35.35122 38182 ft 428 kts 303°
2026-04-30 19:14 45.09869 35.28520 38185 ft 428 kts 303°
2026-04-30 19:14 45.13557 35.21914 38190 ft 428 kts 303°
2026-04-30 19:15 45.17244 35.15292 38192 ft 428 kts 304°
2026-04-30 19:15 45.22750 35.05377 38189 ft 426 kts 304°
2026-04-30 19:16 45.26378 34.98824 38190 ft 425 kts 304°
2026-04-30 19:17 45.31839 34.88932 38204 ft 424 kts 304°
2026-04-30 19:17 45.37273 34.79054 38192 ft 422 kts 303°
2026-04-30 19:18 45.42100 34.70251 38193 ft 421 kts 303°
2026-04-30 19:19 45.45696 34.63674 38204 ft 421 kts 303°
2026-04-30 19:19 45.51055 34.53844 38192 ft 420 kts 303°
2026-04-30 19:20 45.54637 34.47254 38186 ft 420 kts 303°
2026-04-30 19:21 45.60005 34.37350 38189 ft 421 kts 303°
2026-04-30 19:22 45.67165 34.24087 38194 ft 422 kts 303°
2026-04-30 19:22 45.73786 34.15614 38190 ft 438 kts 323°
2026-04-30 19:23 45.81743 34.09082 38209 ft 440 kts 324°
2026-04-30 19:24 45.89718 34.02512 38198 ft 441 kts 324°
2026-04-30 19:25 46.02917 33.91466 38208 ft 441 kts 324°
2026-04-30 19:26 46.13529 33.82532 38213 ft 442 kts 324°
2026-04-30 19:27 46.21486 33.75808 38224 ft 442 kts 324°
2026-04-30 19:28 46.29456 33.69049 38215 ft 443 kts 324°
2026-04-30 19:29 46.40075 33.60010 38238 ft 444 kts 324°
2026-04-30 19:30 46.50710 33.50915 38217 ft 445 kts 324°